Location: P�rn�nmaa
(61.1833°N, 23.0000°E)
Time: 16:38:13
(UTC+00:00)

CSL-04 Debris - Pass Details

Date: 08 December 2019
Orbit: 827 x 848 km, 99.0° (Epoch: 21 January)

Event Time Altitude Azimuth Distance (km) Brightness Sun altitude
Rises 15:33:30 0° 136° (SE) 3,396 7.1 -14.4°
Reaches altitude 10° 15:35:56 10° 131° (SE) 2,461 6.3 -14.7°
Maximum altitude 15:41:09 49° 58° (ENE) 1,077 4.3 -15.3°
Drops below altitude 10° 15:46:22 10° 345° (NNW) 2,460 6.6 -15.9°
Sets 15:48:47 0° 341° (NNW) 3,395 7.4 -16.2°
